Regional Weather Roundup
Issued by NWS

Home | Current Version | Previous Version | Graphics & Text | Print | Product List | Glossary On
Versions: 1 2 3 4 5 6 7 8 9 10 11 12 13 14 15 16 17 18 19 20 21 22 23 24 25 26 27 28 29 30 31 32 33 34 35 36 37 38 39 40 41 42 43 44 45 46 47 48 49 50
000
ASUS45 KTFX 282104
RWRMT
MONTANA HOURLY WEATHER ROUNDUP
NATIONAL WEATHER SERVICE GREAT FALLS MT
304 PM MDT MON JUL 28 2014

NOTE: "FAIR" INDICATES FEW OR NO CLOUDS BELOW 12000 FEET WITH NO
SIGNIFICANT WEATHER AND/OR OBSTRUCTIONS TO VISIBILITY.

* THESE STATIONS ARE NOT UNDER NWS QUALITY CONTROL. THEY DO NOT
   REPORT WEATHER SUCH AS PRECIPITATION OR FOG.

MTZ001>007-043-282200-
WEST OF THE DIVIDE
CITY           SKY/WX    TMP DP  RH WIND       PRES   REMARKS
KALISPELL      SUNNY     82  50  33 N5        30.16F
MISSOULA       SUNNY     90  43  19 VRB6      30.15F
BUTTE          PTSUNNY   82  37  20 VRB3      30.29F
MULLAN PASS    PTCLDY    77  43  30 CALM      30.35S
* ESSEX        N/A       80  45  29 W1G8       N/A
* LINCOLN      N/A       91  35  14 NE5G15     N/A
* LOOKOUT PASS N/A       82  47  29 N1G8       N/A
* POLSON       N/A       88  49  26 N3         N/A
* RONAN APT    PTCLDY    81  52  37 N/A        N/A
* SEELEY LAKE  N/A       85  39  20 W6G11      N/A
* THOMP F APT  PTCLDY    86  29  13 S5G11      N/A
* YAAK HILL    N/A       90  48  24 N4         N/A
$$

MTZ008-052>055-282200-
SOUTHWEST MONTANA
CITY           SKY/WX    TMP DP  RH WIND       PRES   REMARKS
BOZEMAN        CLOUDY    84  45  26 CALM      30.24S
DILLON         CLOUDY    75  43  32 VRB5      30.28S
W YELLOWSTONE  RAIN      84  32  15 SW8       30.34F
* THREE FORKS  CLOUDY    86  48  27 N/A        N/A
* BOULDER HILL N/A       81  43  26 S4G12      N/A
* MONIDA PASS  N/A       79  31  17 W12G17     N/A
* WHITEHALL    N/A       83  47  28 S5         N/A
* WISE RIVER   N/A       84  40  21 E4G10      N/A
$$

MTZ009>010-012-014-046-048-049-054-282200-
EAST SLOPES AND CENTRAL MONTANA
CITY           SKY/WX    TMP DP  RH WIND       PRES   REMARKS
CUT BANK       SUNNY     88  43  21 N/A       30.22F
GREAT FALLS    PTCLDY    90  39  17 VRB3      30.18F
HELENA         PTCLDY    91  39  16 VRB6G16   30.16F
* CONRAD       SUNNY     86  54  33 N/A        N/A
* DEARBORN     N/A       85  46  26 N10        N/A
* EAST GLACIER N/A       79  46  31 S8         N/A
* ROGERS PASS  N/A       83  38  20 S4G9       N/A
* SAINT MARY   N/A       85  50  30 N6G12      N/A
* SWEET GRASS  N/A       89  40  18 E10G19     N/A
$$

MTZ011-013-016-021-035-040-045-047-050-051-282200-
NORTH CENTRAL MONTANA
CITY           SKY/WX    TMP DP  RH WIND       PRES   REMARKS
HAVRE          SUNNY     93  39  15 SE9G18    30.15F
LEWISTOWN      PTCLDY    88  43  21 E13       30.24S
* CHESTER      N/A       87  37  17 E6G12      N/A
* DENTON       N/A       92  48  22 SE7G13     N/A
* JUDITH GAP   N/A       84  46  26 SE9G23     N/A
* LOMA         N/A       91  43  19 NE11G20    N/A
$$

MTZ017>020-022>027-061-062-282200-
NORTHEAST MONTANA
CITY           SKY/WX    TMP DP  RH WIND       PRES   REMARKS
GLASGOW        SUNNY     88  43  21 VRB3      30.20F
GLENDIVE       SUNNY     82  48  31 SE7       30.25F
JORDAN         SUNNY     90  37  15 E14G21    30.20F
SIDNEY         PTCLDY    82  50  33 CALM      30.26S
WOLF POINT     PTSUNNY   88  46  23 VRB5      30.22F
* BEAVER HILL  N/A       80  52  38 N/A        N/A
* CIRCLE       N/A       85  49  29 NE2G10     N/A
* LINDSAY DVD  N/A       81  50  34 E8         N/A
$$

MTZ028>042-056>058-282200-
SOUTHCENTRAL AND SOUTHEAST MONTANA
CITY           SKY/WX    TMP DP  RH WIND       PRES   REMARKS
BAKER          SUNNY     84  46  26 VRB7      30.27F
BILLINGS       SUNNY     90  41  18 E9        30.21F
LIVINGSTON     PTSUNNY   88  43  21 E13       30.24S
MILES CITY     SUNNY     90  43  19 NE10G17   30.21F
* LAUREL APT   SUNNY     90  45  21 NE10G16    N/A
* ROUNDUP APT  PTCLDY    90  43  19 N/A        N/A
* ALZADA       N/A       81  46  29 N3G11      N/A
* HYSHAM       N/A       87  49  27 E9G15      N/A
* REED POINT   N/A       90  49  24 E11        N/A
* ROSCOE HILL  N/A       81  44  27 NE9        N/A
$$

REGIONAL REPORTS...DAKOTAS
CITY           SKY/WX    TMP DP  RH WIND       PRES   REMARKS
WILLISTON      PTCLDY    81  50  34 VRB6      30.25F
DICKINSON      SUNNY     79  52  39 VRB5      30.27F
CROSBY         PTCLDY    75  59  58 NE5       30.27F
TIOGA          SUNNY     73  55  53 CALM      30.31F
WATFORD CITY   PTCLDY    81  52  37 N7        30.25F
BISMARCK       SUNNY     75  48  39 NE6       30.29F
GRAND FORKS    PTCLDY    73  55  53 N10       30.22F
FARGO          CLOUDY    73  52  48 N10       30.23F
BUFFALO SD     SUNNY     81  54  39 SE8       30.22F
RAPID CITY     SUNNY     81  55  41 SE9       30.27F HI  81
$$

REGIONAL REPORTS...WYOMING/IDAHO/WASHINGTON
CITY           SKY/WX    TMP DP  RH WIND       PRES   REMARKS
GILLETTE       SUNNY     86  46  25 CALM      30.26F
SHERIDAN       SUNNY     90  48  24 N/A       30.23F
YELLOWSTONE LA PTSUNNY   77  34  21 CALM      30.47F
SALMON         CLOUDY    82  37  20 CALM      30.16F
MULLAN PASS    PTCLDY    77  43  30 CALM      30.35S
SAND POINT     SUNNY     88  52  29 NE5       30.10F
SPOKANE        PTCLDY    93  36  13 E8        30.09F

$$




USA.gov is the U.S. government's official web portal to all federal, state and local government web resources and services.